Charlotte, NC

10:26 PM EDT on April 24, 2017 (GMT -0400)
Charlotte-Douglas International

Weather History for KCLT - August, 2003

Change the Weather History Date:

Thursday, August 7, 2003

  Actual Average Record
Temperature  
Mean Temperature 76 °F 78 °F  
Max Temperature 84 °F 88 °F 100 °F (1963)
Min Temperature 69 °F 68 °F 50 °F (2004)
Degree Days  
Heating Degree Days 0 0  
Month to date heating degree days 0  
Since 1 June heating degree days 3  
Since 1 July heating degree days 0  
Cooling Degree Days 12 13  
Month to date cooling degree days 91  
Year to date cooling degree days 985  
Since 1 June cooling degree days 822  
Growing Degree Days 26 (Base 50)    
Moisture  
Dew Point 69 °F    
Average Humidity 84    
Maximum Humidity 100    
Minimum Humidity 62    
Precipitation  
Precipitation 0.01 in 0.13 in 1.53 in (1904)
Month to date precipitation 1.00  
Year to date precipitation 25.38  
Snow  
Snow 0.00 in 0.00 in 0.00 in ()
Month to date snowfall 0.0  
Since 1 June snowfall 0.0  
Since 1 July snowfall 0.0  
Snow Depth -    
Sea Level Pressure  
Sea Level Pressure 29.85 in    
Wind  
Wind Speed 3 mph (WNW)    
Max Wind Speed 8 mph    
Max Gust Speed -    
Visibility 8 miles    
Events Rain , Thunderstorm    
T = Trace of Precipitation, MM = Missing Value Source: NWS Daily Summary

Daily Weather History Graph

Daily Weather History Graph

Search for Another Location

Airport or City:

Trip Planner

Search our weather history database for the weather conditions in past years. The results will help you decide how hot, cold, wet, or windy it might be!

Date:

Astronomy

Aug. 07, 2003 Rise Set
Actual Time 6:37 AM EDT 8:21 PM EDT
Civil Twilight 6:09 AM EDT 8:48 PM EDT
Nautical Twilight 5:36 AM EDT 9:22 PM EDT
Astronomical Twilight 5:01 AM EDT 9:57 PM EDT
Moon 4:47 PM EDT (8/7) 1:43 AM EDT (8/7)
Length of Visible Light 14h 39m
Length of Day
13h 44m
Waxing Gibbous, 76% of the Moon is Illuminated
Aug 7
Waxing Gibbous
Aug 12
Full
Aug 19
Last Quarter
Aug 27
New
Sep 3
First Quarter

Hourly Weather History & Observations

Time (EDT) Temp. Heat Index Dew Point Humidity Pressure Visibility Wind Dir Wind Speed Gust Speed Precip Events Conditions
12:51 AM 70.0 °F - 69.1 °F 97% 29.88 in 7.0 mi NNW 5.8 mph - 0.00 in Rain Light Rain
1:51 AM 69.1 °F - 68.0 °F 96% 29.86 in 6.0 mi WNW 4.6 mph - 0.01 in   Overcast
2:51 AM 69.1 °F - 68.0 °F 96% 29.84 in 6.0 mi Calm Calm - N/A   Overcast
3:51 AM 69.1 °F - 68.0 °F 96% 29.83 in 7.0 mi Calm Calm - N/A   Overcast
4:51 AM 69.1 °F - 68.0 °F 96% 29.83 in 6.0 mi Calm Calm - N/A   Overcast
5:51 AM 69.1 °F - 69.1 °F 100% 29.85 in 5.0 mi NW 3.5 mph - 0.00 in   Overcast
6:14 AM 69.8 °F - 69.8 °F 100% 29.88 in 6.0 mi Calm Calm - N/A   Overcast
6:51 AM 69.1 °F - 68.0 °F 96% 29.85 in 7.0 mi North 3.5 mph - N/A   Overcast
7:51 AM 71.1 °F - 68.0 °F 90% 29.85 in 10.0 mi Calm Calm - N/A   Overcast
8:14 AM 69.8 °F - 69.8 °F 100% 29.88 in 7.0 mi Calm Calm - N/A   Mostly Cloudy
8:51 AM 73.0 °F - 69.1 °F 87% 29.86 in 10.0 mi West 3.5 mph - N/A   Scattered Clouds
9:51 AM 75.0 °F - 68.0 °F 79% 29.87 in 10.0 mi Calm Calm - N/A   Scattered Clouds
10:51 AM 79.0 °F - 68.0 °F 69% 29.87 in 10.0 mi NW 5.8 mph - N/A   Scattered Clouds
11:51 AM 80.1 °F 82.7 °F 68.0 °F 67% 29.86 in 10.0 mi Calm Calm - N/A   Scattered Clouds
12:51 PM 81.0 °F 83.3 °F 66.9 °F 62% 29.86 in 10.0 mi Calm Calm - N/A   Scattered Clouds
1:51 PM 82.0 °F 85.5 °F 69.1 °F 65% 29.85 in 10.0 mi Variable 4.6 mph - N/A   Scattered Clouds
2:51 PM 82.0 °F 85.9 °F 70.0 °F 67% 29.83 in 10.0 mi SSW 8.1 mph - N/A   Scattered Clouds
3:51 PM 82.9 °F 86.5 °F 69.1 °F 63% 29.81 in 10.0 mi Variable 3.5 mph - N/A   Scattered Clouds
4:51 PM 84.0 °F 88.4 °F 70.0 °F 63% 29.81 in 10.0 mi South 5.8 mph - N/A   Scattered Clouds
5:51 PM 82.9 °F 87.0 °F 70.0 °F 65% 29.81 in 10.0 mi SSW 8.1 mph - N/A   Scattered Clouds
6:51 PM 81.0 °F 84.4 °F 70.0 °F 69% 29.82 in 10.0 mi Calm Calm - N/A   Mostly Cloudy
7:51 PM 75.0 °F - 69.1 °F 82% 29.84 in 10.0 mi North 6.9 mph - 0.00 in   Mostly Cloudy
8:51 PM 73.0 °F - 70.0 °F 90% 29.84 in 8.0 mi Calm Calm - N/A   Mostly Cloudy
9:51 PM 75.0 °F - 71.1 °F 87% 29.85 in 8.0 mi East 4.6 mph - N/A   Mostly Cloudy
10:51 PM 72.0 °F - 70.0 °F 93% 29.88 in 6.0 mi WNW 5.8 mph - N/A   Mostly Cloudy
11:51 PM 71.1 °F - 70.0 °F 96% 29.88 in 7.0 mi Calm Calm - 0.00 in Thunderstorm Thunderstorm